Location: Banios
(43.0451°N, 0.2335°E)
Time: 08:07:24
(UTC+00:00)

A-11 Canister half - Pass Details

Date: 20 May 2021
Orbit: 1527 x 1681 km, 47.3° (Epoch: 22 June)

Event Time Altitude Azimuth Distance (km) Brightness Sun altitude
Rises 12:48:34 0° 295° (WNW) 4,797 11.6 64.5°
Reaches altitude 10° 12:51:39 10° 293° (WNW) 3,831 11.3 64.2°
Maximum altitude 13:01:21 69° 213° (SSW) 1,741 12.4 63.2°
Drops below altitude 10° 13:11:18 10° 133° (SE) 3,923 11.3 62.1°
Sets 13:14:30 0° 131° (SE) 4,917 11.7 61.7°
